Retour au catalogue

NOAA 16 DEB

ActifSSO
NORAD 41655·DEBRIS·🇺🇸 United States

Lancé Sep 21, 2000 depuis Vandenberg Space Force Base

Loading…

Prochains Passages (prochaines 24 heures)

TLE

FraisSource: Space-Track

Époque: Sep 14, 2026, 12:54 UTC

1 41655U 00055NU  26257.53757740  .00003328  00000-0  11015-2 0  9997
2 41655  98.7256   3.1691 0016851 223.3156 136.6707 14.38532902540199

Suivez NOAA 16 DEB en temps réel avec AllMySat

Download on the App Store